Theta_e
326 325 327 329 331 335 338 350 354 350 345 344 350 347 346 345 345 347 348 342 344 342 340 340 340 337 338 337 338 338 336 338
326 325 327 330 332 333 340 343 353 357 346 341 344 345 345 343 344 349 345 340 343 343 338 339 343 338 338 336 335 341 336 337
326 326 328 330 332 334 337 346 354 356 358 344 346 346 342 345 342 344 343 340 344 341 343 339 339 337 337 340 339 339 340 337
325 326 328 330 333 335 337 345 355 356 353 357 353 354 346 342 340 340 343 343 343 339 340 341 344 343 338 337 337 337 335 333
324 326 330 331 334 337 347 351 354 358 358 356 350 345 343 340 339 345 342 345 345 343 339 344 344 343 342 339 339 338 333 334
325 326 332 337 338 341 347 341 352 358 357 354 348 343 342 338 338 340 344 344 343 341 341 344 346 344 343 340 335 334 334 330
327 327 330 336 341 346 345 350 348 356 358 351 351 353 341 338 338 339 341 342 342 343 342 343 345 343 339 337 336 339 334 332
326 329 331 336 344 349 350 349 354 358 352 354 345 340 339 338 338 338 340 341 341 343 342 341 342 338 336 337 337 336 336 336
326 327 332 333 339 343 348 348 353 351 347 343 339 336 338 337 338 340 341 341 343 342 340 339 339 339 338 336 335 329 333 336
323 327 329 336 337 341 342 344 353 352 348 346 341 340 336 336 337 341 341 340 341 341 339 337 338 339 335 333 333 331 331 336
322 324 329 335 337 339 340 342 348 351 350 345 343 340 338 335 334 336 339 339 339 339 338 337 337 336 334 335 334 331 329 331
323 323 333 334 336 339 341 344 347 347 348 343 347 335 330 332 336 335 336 336 336 336 337 336 337 336 335 334 334 332 331 328
321 323 333 334 337 339 343 344 343 344 346 346 336 338 333 333 333 335 338 339 336 333 335 335 335 338 335 334 332 331 335 333
323 332 333 334 337 340 340 339 340 340 339 339 341 336 334 331 332 332 335 335 334 334 333 334 335 335 334 335 333 333 335 335
327 329 330 333 335 336 337 337 336 338 337 337 338 338 337 335 333 333 332 332 335 334 333 334 335 336 335 335 334 334 335 333
327 329 331 332 334 335 335 335 335 335 336 337 337 338 333 332 333 332 332 331 332 334 333 335 335 334 335 336 339 337 335 336
328 330 331 332 332 333 335 335 334 335 335 336 337 337 334 335 336 336 333 336 331 332 333 333 334 334 333 335 336 334 335 334
328 329 330 332 332 334 335 335 334 333 335 335 335 335 335 336 335 333 333 333 331 331 331 333 333 333 333 335 335 335 334 333
327 328 330 331 332 333 334 332 332 333 334 335 335 335 333 335 334 333 332 333 331 330 330 330 330 331 335 336 335 333 331 334
327 328 329 330 331 332 330 331 330 332 332 334 335 335 335 335 334 333 332 331 330 329 329 329 329 332 333 333 331 330 331 331
Wind_Speed
18 16 17 15 15 11 14 14 13 14 13 10 8 8 9 9 12 10 8 6 7 6 6 7 9 14 8 13 12 10 9 5
17 17 17 16 14 12 16 16 14 13 11 11 10 10 9 8 10 11 7 6 8 7 6 7 4 5 6 6 5 1 4 6
18 17 17 16 15 14 11 17 16 13 13 11 10 10 9 9 8 9 8 8 7 7 5 5 7 5 7 3 4 0 3 5
17 17 16 15 15 13 12 18 16 16 14 11 10 7 9 9 8 8 11 8 6 7 6 6 7 8 8 6 4 5 4 5
16 15 14 14 13 12 10 14 17 17 16 14 11 11 10 10 8 8 8 8 8 8 8 5 7 4 7 5 7 5 7 7
17 17 13 12 11 11 11 13 18 17 16 13 11 11 11 10 8 8 10 10 9 8 8 7 7 6 6 7 5 7 9 7
19 18 15 12 12 10 12 14 17 17 15 13 12 10 10 9 7 7 8 9 9 7 7 7 8 6 7 7 8 8 8 6
22 19 16 13 11 9 10 12 13 16 13 10 11 10 9 8 7 7 7 7 6 4 6 7 7 6 6 6 9 7 6 6
22 19 15 11 9 9 11 12 13 13 12 13 12 11 9 8 6 6 6 7 5 5 5 7 6 6 7 8 7 5 6 6
24 19 13 7 7 10 13 14 14 13 11 10 9 8 9 7 7 6 5 6 6 3 5 6 8 6 8 8 8 6 4 5
20 17 9 7 10 12 14 14 15 13 12 8 6 5 4 4 5 6 8 6 6 4 5 6 6 6 3 6 7 9 6 6
19 18 10 9 11 13 14 15 16 13 12 10 10 8 7 4 1 2 3 2 3 2 4 6 6 4 3 6 7 7 9 7
20 13 13 11 12 13 15 17 15 14 11 10 9 6 5 3 2 2 3 1 3 6 5 5 6 2 4 4 5 5 5 6
9 14 14 13 14 15 16 18 15 14 12 11 7 5 2 2 3 2 4 3 3 4 5 3 1 3 3 5 4 6 4 5
11 14 15 16 17 18 17 17 16 14 12 10 9 7 5 4 3 5 5 4 4 6 3 2 1 3 5 3 5 4 5 3
12 15 16 18 19 19 18 17 16 14 12 10 8 8 7 4 3 3 6 5 4 6 3 4 2 4 4 3 4 3 4 3
15 16 17 19 18 18 17 17 15 13 12 9 8 6 3 8 5 3 5 4 7 5 3 3 4 7 3 2 1 1 2 3
17 17 18 17 17 16 16 15 14 13 12 9 8 7 6 6 5 4 4 6 4 4 3 4 2 4 2 2 1 3 4 4
18 18 18 17 16 16 14 14 13 12 11 8 7 5 7 6 4 6 5 6 5 5 5 4 3 2 1 1 3 3 4 4
18 19 18 17 17 16 14 13 12 11 10 9 6 6 4 5 6 7 7 6 5 5 4 4 4 5 2 2 4 2 5 5
Wind_Direction
288 281 281 272 279 211 216 178 188 202 204 188 187 200 201 203 218 221 230 250 251 240 239 218 212 201 233 201 220 229 227 254
288 294 286 279 258 256 195 195 184 195 206 200 194 198 194 203 201 214 228 233 225 235 262 281 230 249 261 270 268 45 307 269
275 284 275 263 262 265 239 186 177 188 217 200 199 204 192 201 212 198 222 239 237 254 258 290 290 277 279 279 298 99 240 255
281 278 274 264 261 258 242 183 177 184 200 223 185 198 188 203 214 218 199 238 242 257 254 238 239 253 261 269 245 263 266 246
271 278 271 265 259 251 235 190 176 183 196 208 190 189 209 194 215 212 223 221 235 255 268 263 260 260 251 256 281 269 259 256
273 280 270 261 260 257 210 205 178 181 189 199 199 197 193 203 204 209 202 225 240 265 259 260 258 247 236 239 244 248 254 265
276 272 267 253 250 240 224 203 188 181 192 196 197 196 193 204 202 211 214 227 239 240 256 272 271 248 231 226 228 235 259 239
277 271 267 246 236 227 210 195 185 177 189 195 194 183 200 203 201 220 228 239 241 241 264 264 255 239 236 228 233 230 229 250
271 269 263 246 252 208 193 175 184 172 191 193 192 183 196 196 209 214 237 248 242 269 262 259 260 258 246 240 236 244 236 244
267 261 262 194 199 188 183 183 174 177 182 195 188 192 184 196 198 198 223 262 275 264 239 246 250 249 234 229 227 227 233 222
267 266 231 183 186 180 179 175 166 182 172 171 150 168 151 172 200 213 211 220 260 238 253 250 254 243 261 239 233 226 225 211
246 249 139 178 176 168 162 160 163 164 154 154 162 178 196 183 201 33 347 202 303 273 258 233 225 243 231 238 226 225 218 214
248 231 142 166 153 155 148 149 160 140 170 158 172 204 154 175 183 110 206 196 259 264 198 207 219 198 242 226 216 198 219 204
210 109 139 144 149 145 147 151 143 158 149 146 195 138 131 167 196 272 127 202 213 254 209 208 141 225 232 224 175 186 207 210
137 147 151 151 148 147 149 147 149 150 147 153 138 149 143 183 226 179 163 184 191 205 185 197 207 229 237 202 202 203 194 209
155 154 149 148 146 149 146 149 149 152 151 153 148 136 179 198 190 14 115 199 191 145 193 120 218 202 216 214 229 213 224 205
147 145 148 145 147 148 149 148 148 152 154 150 144 177 116 71 98 191 132 214 118 176 144 175 210 210 196 228 289 238 265 234
143 146 144 142 146 144 146 148 151 153 156 154 149 149 153 139 159 199 154 103 150 167 186 195 181 223 148 128 243 229 225 244
150 145 141 144 142 144 147 148 153 156 155 162 132 154 160 151 161 162 149 159 171 200 194 229 225 173 74 209 188 231 180 237
148 143 149 148 147 150 152 153 151 160 168 141 145 140 148 152 180 157 164 173 190 215 202 226 244 91 81 167 135 158 178 199